Flag for Germany Weather past 2 weeks in Konstanz, Baden-Württemberg, Germany

Now
57 °F

Passing clouds.


Feels Like: 57 °F
Forecast: 36 / 62 °F
Wind: 3 mph from Northeast

Location: Konstanz

Current Time: Apr 19, 2015 at 8:22:22 PM

Latest Report: Apr 19, 2015 at 8:00 PM


Visibility: 44 mi

Pressure: 30.04 "Hg

Humidity: 42%

Dew point: 34 °F

Location of KonstanzLocation

Historic Weather in Konstanz — Graph

°F

Konstanz temperature yesterday

Maximum temperature yesterday: 55 °F (at 3:00 PM)
Minimum temperature yesterday: 42 °F (at 7:00 AM)
Average temperature yesterday: 48 °F

Past Weeks' High & Low Weather Summary

 TemperatureHumidityPressure
High74 °F (Apr 15, 4:00 PM)99% (Apr 17, 10:00 PM)30.62 "Hg (Apr 17, 10:00 PM)
Low30 °F (Apr 6, 7:00 AM)20% (Apr 8, 5:00 PM)29.88 "Hg (Apr 16, 6:00 PM)
Average51 °F60%30.26 "Hg
* Reported Apr 4 7:00 PM — Apr 19 7:00 PM, Konstanz, Weather by CustomWeather, © 2015

Note: Actual official high and low records may vary slightly from our data, if they occured in-between our weather recording intervals... More about our weather records

Advertising

Konstanz weather history for previous 24 hours

 ConditionsComfort  
Time TempWeatherWind HumidityBarometerVisibility
7:00 PM
Sun, Apr 19
61 °FPassing clouds.5 mph36%30.01 "Hg31 mi
6:00 PM64 °FPassing clouds.5 mph30%29.99 "Hg31 mi
5:00 PM65 °FPassing clouds.3 mph29%29.98 "Hg31 mi
4:00 PM64 °FPassing clouds.5 mph29%29.99 "Hg31 mi
3:00 PM62 °FPassing clouds.5 mph31%30.00 "Hg31 mi
2:00 PM60 °FPassing clouds.3 mph33%30.02 "Hg31 mi
1:00 PM58 °FPassing clouds.5 mph35%30.03 "Hg31 mi
12:00 PM55 °FPassing clouds.5 mph39%30.05 "Hg31 mi
11:00 AM53 °FSunny.3 mph45%30.06 "Hg31 mi
10:00 AM49 °FSunny.3 mph47%30.07 "Hg28 mi
9:00 AM46 °FSunny.3 mph52%30.08 "Hg28 mi
8:00 AM42 °FSunny.5 mph61%30.10 "Hg28 mi
7:00 AM39 °FSunny.3 mph67%30.10 "Hg28 mi
6:00 AM40 °FClear.5 mph65%30.11 "Hg22 mi
5:00 AM40 °FClear.5 mph64%30.13 "Hg34 mi
4:00 AM41 °FClear.5 mph61%30.14 "Hg40 mi
3:00 AM43 °FClear.6 mph54%30.15 "Hg43 mi
2:00 AM43 °FClear.6 mph54%30.17 "Hg43 mi
1:00 AM44 °FClear.5 mph54%30.17 "Hg43 mi
12:00 AM44 °FClear.5 mph54%30.18 "Hg43 mi
11:00 PM
Sat, Apr 18
45 °FClear.3 mph53%30.19 "Hg43 mi
10:00 PM46 °FClear.5 mph50%30.19 "Hg43 mi
9:00 PM47 °FPassing clouds.3 mph48%30.19 "Hg25 mi
8:00 PM50 °FPassing clouds.3 mph42%30.18 "Hg31 mi
Weather by CustomWeather, © 2015

See weather overviewHow to use our weather pages